Weather History for Indianapolis, IN

Change the Weather History Date:

Monday, December 30, 2013

  Actual Average Record
Temperature  
Mean Temperature 21 °F 29 °F  
Max Temperature 25 °F 36 °F 67 °F (1965)
Min Temperature 16 °F 21 °F -14 °F (1983)
Degree Days  
Heating Degree Days 44 36  
Month to date heating degree days 1037 997  
Since 1 July heating degree days 2181 2039  
Cooling Degree Days 0 0  
Month to date cooling degree days 0 0  
Year to date cooling degree days 1160 1066  
Moisture  
Dew Point 12 °F    
Average Humidity 75    
Maximum Humidity 88    
Minimum Humidity 62    
Precipitation  
Precipitation T in 0.10 in 1.94 in (1936)
Month to date precipitation 4.44 3.07  
Year to date precipitation 45.92 42.34  
Snow  
Snow T in 0.30 in 10.00 in (1895)
Month to date snowfall 8.8 6.6  
Since 1 July snowfall 8.9 7.7  
Snow Depth 0.00 in    
Sea Level Pressure  
Sea Level Pressure 30.22 in    
Wind  
Wind Speed 8 mph (WNW)    
Max Wind Speed 20 mph    
Max Gust Speed 22 mph    
Visibility 9 miles    
Events Snow    
T = Trace of Precipitation, MM = Missing Value Source: NWS Daily Summary

Daily Weather History Graph

Daily Weather History Graph

Search for Another Location

Airport:

Trip Planner

Search our weather history database for the weather conditions in past years. The results will help you decide how hot, cold, wet, or windy it might be!

Date:

Astronomy

Dec. 30, 2013 Rise Set
Actual Time 8:05 AM EST 5:30 PM EST
Civil Twilight 7:35 AM EST 6:00 PM EST
Nautical Twilight 7:01 AM EST 6:34 PM EST
Astronomical Twilight 6:28 AM EST 7:06 PM EST
Moon 5:55 AM EST (12/30) 4:02 PM EST (12/30)
Length of Visible Light 10h 24m
Length of Day
9h 24m
Waning Crescent, 5% of the Moon is Illuminated
Dec 30
Waning Crescent
Jan 1
New
Jan 7
First Quarter
Jan 15
Full
Jan 24
Last Quarter

Hourly Weather History & Observations

Time (EST) Temp. Windchill Dew Point Humidity Pressure Visibility Wind Dir Wind Speed Gust Speed Precip Events Conditions
12:14 AM 24.8 °F 13.4 °F 21.2 °F 86% 30.09 in 8.0 mi NW 12.7 mph - N/A   Overcast
12:54 AM 24.1 °F 11.5 °F 21.0 °F 88% 30.12 in 10.0 mi WNW 15.0 mph - N/A   Overcast
1:54 AM 23.0 °F 11.7 °F 19.9 °F 88% 30.14 in 10.0 mi WNW 11.5 mph - N/A   Overcast
2:54 AM 21.9 °F 10.4 °F 18.0 °F 85% 30.16 in 9.0 mi NW 11.5 mph - 0.00 in Snow Light Snow
3:04 AM 21.2 °F 9.5 °F 17.6 °F 86% 30.14 in 9.0 mi NW 11.5 mph - 0.00 in Snow Light Snow
3:54 AM 21.0 °F 8.6 °F 16.0 °F 81% 30.19 in 7.0 mi WNW 12.7 mph - 0.00 in Snow Light Snow
4:54 AM 19.9 °F 7.3 °F 14.0 °F 78% 30.20 in 9.0 mi WNW 12.7 mph - 0.00 in Snow Light Snow
5:54 AM 19.0 °F 8.2 °F 14.0 °F 81% 30.22 in 8.0 mi WNW 9.2 mph - 0.00 in Snow Light Snow
6:54 AM 18.0 °F 6.1 °F 12.9 °F 81% 30.25 in 4.0 mi WNW 10.4 mph - 0.00 in Snow Light Snow
7:54 AM 17.1 °F 5.8 °F 9.0 °F 71% 30.27 in 9.0 mi WNW 9.2 mph - 0.00 in Snow Light Snow
8:28 AM 15.8 °F 6.1 °F 8.6 °F 73% 30.24 in 9.0 mi WNW 6.9 mph - 0.00 in Snow Light Snow
8:54 AM 17.1 °F 7.6 °F 10.0 °F 74% 30.27 in 8.0 mi NW 6.9 mph - 0.00 in Snow Light Snow
9:29 AM 17.6 °F 9.3 °F 10.4 °F 73% 30.25 in 7.0 mi NNW 5.8 mph - 0.00 in Snow Light Snow
9:54 AM 18.0 °F 9.8 °F 10.0 °F 71% 30.30 in 9.0 mi West 5.8 mph - 0.00 in Snow Light Snow
10:54 AM 18.0 °F 12.7 °F 9.0 °F 68% 30.31 in 9.0 mi North 3.5 mph - 0.00 in Snow Light Snow
11:54 AM 19.0 °F 11.1 °F 10.0 °F 68% 30.30 in 9.0 mi NW 5.8 mph - 0.00 in Snow Light Snow
12:54 PM 19.0 °F 13.9 °F 9.0 °F 65% 30.27 in 9.0 mi NW 3.5 mph - 0.00 in Snow Light Snow
1:49 PM 19.4 °F 11.5 °F 10.4 °F 68% 30.21 in 10.0 mi WSW 5.8 mph - 0.00 in   Mostly Cloudy
1:51 PM 19.4 °F 11.5 °F 10.4 °F 68% 30.21 in 10.0 mi West 5.8 mph - 0.00 in   Mostly Cloudy
1:54 PM 19.9 °F - 10.0 °F 65% 30.25 in 10.0 mi Calm Calm - 0.00 in   Mostly Cloudy
2:54 PM 19.9 °F 13.4 °F 10.0 °F 65% 30.23 in 10.0 mi West 4.6 mph - N/A   Mostly Cloudy
3:54 PM 19.9 °F 13.4 °F 10.0 °F 65% 30.22 in 10.0 mi SSW 4.6 mph - N/A   Mostly Cloudy
4:54 PM 19.9 °F 10.1 °F 10.0 °F 65% 30.24 in 10.0 mi West 8.1 mph - N/A   Mostly Cloudy
5:54 PM 19.0 °F 11.1 °F 10.0 °F 68% 30.24 in 10.0 mi West 5.8 mph - N/A   Mostly Cloudy
6:54 PM 19.0 °F 13.9 °F 10.9 °F 71% 30.24 in 10.0 mi West 3.5 mph - N/A   Mostly Cloudy
7:54 PM 19.0 °F 9.0 °F 10.9 °F 71% 30.25 in 10.0 mi West 8.1 mph - N/A   Mostly Cloudy
8:54 PM 19.0 °F 9.0 °F 10.9 °F 71% 30.24 in 10.0 mi WSW 8.1 mph - N/A   Overcast
9:54 PM 19.0 °F 8.2 °F 10.9 °F 71% 30.22 in 10.0 mi SSW 9.2 mph - N/A   Overcast
10:54 PM 19.0 °F 7.5 °F 10.9 °F 71% 30.23 in 10.0 mi WSW 10.4 mph - N/A   Overcast
11:54 PM 19.0 °F 8.2 °F 10.9 °F 71% 30.21 in 10.0 mi SW 9.2 mph - N/A   Overcast